User: anonymous   Login
Location: Stara Lesna
(49.1528°N, 20.2911°E)
Time: 08:05:06
(UTC+01:00)
Language:

Cosmos 1666 - Orbit

View from above orbital plane
View from above orbital plane
View from above satellite
View from above satellite

Ground track
Ground track

The orbit data is extracted from the following two-line orbital elements,

1 15889U 85058A   19322.74497619  .00000553  00000-0  24996-4 0  9998
2 15889  82.4894 197.2807 0015832 221.1387 138.8655 15.18686329876360
Epoch (UTC): 18 November 2019 17:52:45
Eccentricity: 0.0015832
inclination: 82.4894°
perigee height: 499 km
apogee height: 521 km
right ascension of ascending node: 197.2807°
argument of perigee: 221.1387°
revolutions per day: 15.18686329
mean anomaly at epoch: 138.8655°
orbit number at epoch: 87636

The dashed part of the orbit path shows where the satellite is in the earth's shadow,  

DLR